Location: Morlupo
(42.1333°N, 12.5000°E)
Time: 15:19:12
(UTC+00:00)

ARGOS - Pass Details

Date: 18 September 2020
Orbit: 821 x 834 km, 98.4° (Epoch: 25 October)

Event Time Altitude Azimuth Distance (km) Brightness Sun altitude
Rises 17:32:43 0° 135° (SE) 3,342 5.8 -4.3°
Reaches altitude 10° 17:35:18 10° 125° (SE) 2,414 5.1 -4.8°
Maximum altitude 17:39:52 30° 66° (ENE) 1,449 4.0 -5.7°
Drops below altitude 10° 17:44:28 10° 7° (N) 2,432 5.6 -6.5°
Sets 17:47:04 0° 357° (N) 3,372 6.5 -7.0°
